Location: Coed Ely
(51.5661°N, 3.4150°W)
Time: 20:00:58
(UTC+00:00)

Cosmos 1627 Rocket - Pass Details

Date: 28 January 2021
Orbit: 951 x 1003 km, 82.9° (Epoch: 27 February)

Event Time Altitude Azimuth Distance (km) Brightness Sun altitude
Rises 18:19:32 0° 179° (S) 3,647 7.7 -12.9°
Reaches altitude 10° 18:22:01 10° 177° (S) 2,712 6.9 -13.3°
Maximum altitude 18:28:11 70° 95° (E) 1,046 4.5 -14.2°
Drops below altitude 10° 18:34:29 10° 14° (NNE) 2,766 6.6 -15.2°
Sets 18:37:03 0° 12° (NNE) 3,725 7.3 -15.6°
